Location: Mentone
(34.5413°N, 85.5351°W)
Time: 03:04:52
(UTC-05:00)

Tiros 1 despin weight - All Passes

Search period start: 24 March 2017 00:00
Search period end: 03 April 2017 00:00
Orbit: 596 x 644 km, 48.2° (Epoch: 22 March)

Date Brightness Start Highest point End Pass type
(mag) Time Alt. Az. Time Alt. Az. Time Alt. Az.
24 Mar - 02:24:35 10° S 02:27:39 18° SE 02:30:42 10° E night (unlit)
24 Mar - 04:04:26 10° WSW 04:08:52 66° NW 04:13:16 10° NE visible
24 Mar - 05:47:52 10° WNW 05:51:03 19° NNW 05:54:15 10° NNE visible
24 Mar - 07:31:42 10° NNW 07:34:00 14° N 07:36:18 10° NE daylight
24 Mar - 09:13:01 10° NW 09:16:46 26° NNE 09:20:31 10° E daylight
24 Mar - 10:54:13 10° WNW 10:58:37 67° SW 11:03:04 10° SE daylight
25 Mar - 02:40:18 10° SSW 02:44:29 39° SE 02:48:36 10° ENE visible
25 Mar - 04:21:56 10° W 04:26:04 36° NNW 04:30:09 10° NE visible
25 Mar - 06:06:02 10° NW 06:08:37 15° N 06:11:12 10° NNE visible
25 Mar - 07:48:51 10° NNW 07:51:37 16° NNE 07:54:22 10° NE daylight
25 Mar - 09:29:51 10° NW 09:34:04 43° NNE 09:38:19 10° ESE daylight
25 Mar - 11:11:38 10° WNW 11:15:32 31° SW 11:19:28 10° SSE daylight
26 Mar - 01:18:50 10° SSE 01:20:23 12° SE 01:21:57 10° ESE night (unlit)
26 Mar - 02:56:57 10° SW 03:01:25 84° SE 03:05:52 10° NE visible
26 Mar - 04:39:50 10° WNW 04:43:24 23° NNW 04:46:58 10° NNE visible
26 Mar - 06:24:00 10° NNW 06:26:15 14° N 06:28:30 10° NNE daylight
26 Mar - 08:05:44 10° NNW 08:09:09 21° NNE 08:12:33 10° ENE daylight
26 Mar - 09:46:47 10° NW 09:51:12 83° NE 09:55:40 10° SE daylight
26 Mar - 11:29:58 10° W 11:32:19 14° SW 11:34:40 10° SSW daylight
27 Mar - 01:33:25 10° S 01:37:09 26° SE 01:40:51 10° ENE night (unlit)
27 Mar - 03:14:11 10° WSW 03:18:32 49° NNW 03:22:51 10° NE visible
27 Mar - 04:57:59 10° NW 05:00:54 17° NNW 05:03:48 10° NNE visible
27 Mar - 06:41:25 10° NNW 06:43:53 14° N 06:46:21 10° NE daylight
27 Mar - 08:22:32 10° NW 08:26:32 32° NNE 08:30:31 10° E daylight
27 Mar - 10:03:57 10° WNW 10:08:12 47° SW 10:12:28 10° SSE daylight
28 Mar - 01:49:37 10° SW 01:54:01 56° SE 01:58:23 10° ENE night (unlit)
28 Mar - 03:31:53 10° W 03:35:48 29° NNW 03:39:41 10° NE visible
28 Mar - 05:16:06 10° NW 05:18:30 14° N 05:20:52 10° NNE visible
28 Mar - 06:58:26 10° NNW 07:01:28 18° NNE 07:04:30 10° ENE daylight
28 Mar - 08:39:24 10° NW 08:43:45 57° NE 08:48:08 10° ESE daylight
28 Mar - 10:21:39 10° W 10:25:03 22° SW 10:28:27 10° S daylight
29 Mar - 00:26:54 10° S 00:29:51 17° SE 00:32:47 10° E night (unlit)
29 Mar - 02:06:33 10° WSW 02:11:03 71° NW 02:15:29 10° NE visible
29 Mar - 03:49:55 10° WNW 03:53:12 20° NNW 03:56:29 10° NNE visible
29 Mar - 05:33:50 10° NNW 05:36:08 14° N 05:38:25 10° NE visible
29 Mar - 07:15:15 10° NNW 07:18:56 25° NNE 07:22:36 10° E daylight
29 Mar - 08:56:25 10° WNW 09:00:49 72° SW 09:05:14 10° SE daylight
30 Mar - 00:42:30 10° SSW 00:46:40 37° SE 00:50:47 10° ENE night (unlit)
30 Mar - 02:24:01 10° W 02:28:13 38° NNW 02:32:23 10° NE visible
30 Mar - 04:08:05 10° NW 04:10:45 15° N 04:13:24 10° NNE visible
30 Mar - 05:51:03 10° NNW 05:53:45 16° N 05:56:27 10° NE visible
30 Mar - 07:32:03 10° NW 07:36:15 40° NNE 07:40:26 10° E daylight
30 Mar - 09:13:47 10° WNW 09:17:44 33° SW 09:21:42 10° SSE daylight
30 Mar - 23:21:25 10° SE 23:22:35 11° SE 23:23:45 10° ESE night (unlit)
31 Mar - 00:59:04 10° SW 01:03:36 79° SE 01:08:05 10° NE night (unlit)
31 Mar - 02:41:52 10° WNW 02:45:33 24° NNW 02:49:12 10° NNE visible
31 Mar - 04:26:04 10° NNW 04:28:22 14° N 04:30:40 10° NNE visible
31 Mar - 06:07:57 10° NNW 06:11:17 20° NNE 06:14:37 10° ENE daylight
31 Mar - 07:48:58 10° NW 07:53:24 77° NE 07:57:49 10° ESE daylight
31 Mar - 09:31:59 10° W 09:34:32 15° SW 09:37:04 10° SSW daylight
31 Mar - 23:35:39 10° S 23:39:20 24° SE 23:42:58 10° ENE night (unlit)
01 Apr - 01:16:15 10° WSW 01:20:41 53° NNW 01:25:04 10° NE night (unlit)
01 Apr - 03:00:01 10° WNW 03:03:01 17° NNW 03:06:02 10° NNE visible
01 Apr - 04:43:34 10° NNW 04:46:01 14° N 04:48:26 10° NE visible
01 Apr - 06:24:45 10° NW 06:28:41 30° NNE 06:32:36 10° E daylight
01 Apr - 08:06:08 10° WNW 08:10:24 50° SW 08:14:40 10° SSE daylight
01 Apr - 23:51:46 10° SW 23:56:12 52° SE 00:00:35 10° ENE night (unlit)
02 Apr - 01:33:55 10° W 01:37:56 30° NNW 01:41:54 10° NE night (unlit)
02 Apr - 03:18:08 10° NW 03:20:37 14° N 03:23:05 10° NNE visible
02 Apr - 05:00:36 10° NNW 05:03:36 17° NNE 05:06:35 10° ENE visible
02 Apr - 06:41:35 10° NW 06:45:56 53° NNE 06:50:14 10° ESE daylight
02 Apr - 08:23:44 10° W 08:27:15 23° SW 08:30:44 10° S daylight
02 Apr - 22:29:12 10° SSE 22:32:02 16° SE 22:34:50 10° E night (unlit)
